McComb, MS

3:23 PM CDT on April 24, 2017 (GMT -0500)
McComb-Pike County-Lewis

Weather History for KMCB - October, 2011

Change the Weather History Date:

Sunday, October 2, 2011

  Actual Average Record
Temperature  
Mean Temperature 62 °F -  
Max Temperature 73 °F 84 °F 93 °F (1952)
Min Temperature 51 °F 55 °F 40 °F (1984)
Degree Days  
Heating Degree Days 3    
Growing Degree Days 12 (Base 50)    
Moisture  
Dew Point 43 °F    
Average Humidity 55    
Maximum Humidity 74    
Minimum Humidity 34    
Precipitation  
Precipitation 0.00 in - - ()
Sea Level Pressure  
Sea Level Pressure 30.17 in    
Wind  
Wind Speed 6 mph (NNE)    
Max Wind Speed 9 mph    
Max Gust Speed 17 mph    
Visibility 10 miles    
Events      
Averages and records for this station are not official NWS values.
T = Trace of Precipitation, MM = Missing Value Source: NWS Daily Summary

Daily Weather History Graph

Daily Weather History Graph

Search for Another Location

Airport or City:

Trip Planner

Search our weather history database for the weather conditions in past years. The results will help you decide how hot, cold, wet, or windy it might be!

Date:

Astronomy

Oct. 02, 2011 Rise Set
Actual Time 6:56 AM CDT 6:46 PM CDT
Civil Twilight 6:31 AM CDT 7:10 PM CDT
Nautical Twilight 6:03 AM CDT 7:38 PM CDT
Astronomical Twilight 5:35 AM CDT 8:06 PM CDT
Moon 12:40 PM CDT (10/2) 11:06 PM CDT (10/2)
Length of Visible Light 12h 38m
Length of Day
11h 49m
Waxing Crescent, 35% of the Moon is Illuminated
Oct 2
Waxing Crescent
Oct 3
First Quarter
Oct 11
Full
Oct 19
Last Quarter
Oct 26
New

Hourly Weather History & Observations

Time (CDT) Temp. Dew Point Humidity Pressure Visibility Wind Dir Wind Speed Gust Speed Precip Events Conditions
12:53 AM 57.0 °F 44.1 °F 62% 30.14 in 10.0 mi North 6.9 mph - N/A   Clear
1:53 AM 55.9 °F 44.1 °F 64% 30.15 in 10.0 mi NNE 4.6 mph - N/A   Clear
2:53 AM 54.0 °F 44.1 °F 69% 30.15 in 10.0 mi North 4.6 mph - N/A   Clear
3:53 AM 53.1 °F 44.1 °F 71% 30.15 in 10.0 mi NNE 4.6 mph - N/A   Clear
5:53 AM 51.1 °F 43.0 °F 74% 30.17 in 10.0 mi North 5.8 mph - N/A   Clear
6:53 AM 51.1 °F 43.0 °F 74% 30.19 in 10.0 mi NNE 4.6 mph - N/A   Clear
7:53 AM 52.0 °F 43.0 °F 71% 30.20 in 10.0 mi NNE 5.8 mph - N/A   Clear
8:53 AM 57.0 °F 43.0 °F 59% 30.22 in 10.0 mi NE 5.8 mph - N/A   Clear
9:53 AM 61.0 °F 42.1 °F 50% 30.23 in 10.0 mi NE 6.9 mph - N/A   Clear
10:53 AM 64.9 °F 41.0 °F 42% 30.23 in 10.0 mi NE 8.1 mph - N/A   Clear
11:53 AM 66.0 °F 42.1 °F 42% 30.21 in 10.0 mi Variable 6.9 mph - N/A   Clear
1:53 PM 71.1 °F 41.0 °F 34% 30.17 in 10.0 mi North 9.2 mph 17.3 mph N/A   Clear
2:53 PM 71.1 °F 42.1 °F 35% 30.15 in 10.0 mi Variable 4.6 mph - N/A   Clear
3:53 PM 73.0 °F 43.0 °F 34% 30.14 in 10.0 mi North 8.1 mph - N/A   Clear
5:53 PM 72.0 °F 43.0 °F 35% 30.14 in 10.0 mi North 4.6 mph - N/A   Clear
6:53 PM 66.0 °F 44.1 °F 45% 30.15 in 10.0 mi Calm Calm - N/A   Clear
8:53 PM 61.0 °F 45.0 °F 56% 30.17 in 10.0 mi Calm Calm - N/A   Clear
9:53 PM 59.0 °F 45.0 °F 60% 30.18 in 10.0 mi North 3.5 mph - N/A   Clear
10:53 PM 57.9 °F 45.0 °F 62% 30.18 in 10.0 mi North 4.6 mph - N/A   Clear